Regional Weather Roundup
Issued by NWS

Home | Current Version | Previous Version | Text Only | Print | Product List | Glossary On
Versions: 1 2 3 4 5 6 7 8 9 10 11 12 13 14 15 16 17 18 19 20 21 22 23 24 25 26 27 28 29 30 31 32 33 34 35 36 37 38 39 40 41 42 43 44 45 46 47 48 49 50
000
ASPQ40 PGUM 312314
RWRPQ
WEATHER ROUNDUP FOR THE MARIANAS AND MICRONESIA
NATIONAL WEATHER SERVICE TIYAN GU
900 AM CHST SAT AUG 01 2015

GUZ001>004-010000-
MARIANA ISLANDS-

CITY           SKY/WX    TMP DP  RH WIND       PRES   REMARKS
GUAM AIRPORT   MOSUNNY   84  77  79 N6        29.82R HX  94
ANDERSEN AFB   PTSUNNY   84  77  79 N7        29.82  HX  94
ROTA AIRPORT   NOT AVBL
TINIAN AP      NOT AVBL
SAIPAN AP      NOT AVBL

$$

PMZ161-010000-
REPUBLIC OF PALAU-

CITY           SKY/WX    TMP DP  RH WIND       PRES   REMARKS
KOROR AP       PTSUNNY   81  77  89 W8        29.81R
KOROR WSO      CLOUDY    82  77  83 W6        29.81R HX  91

$$

PMZ171>174-010000-
FEDERATED STATES OF MICRONESIA-

CITY           SKY/WX    TMP DP  RH WIND       PRES   REMARKS
YAP AIRPORT    PTSUNNY   84  77  79 CALM      29.79S HX  94
CHUUK AP       CLOUDY    81  77  89 SW9       29.79R
POHNPEI AP     HVY RAIN  77  75  94 W9        29.78R
POHNPEI WSO    SHOWER    77  75  94 SW3       29.85R
KOSRAE AP      CLOUDY    81  75  83 NW15      29.81S

$$

PMZ181-010000-
REPUBLIC OF THE MARSHALL ISLANDS-

CITY           SKY/WX    TMP DP  RH WIND       PRES   REMARKS
KWAJALEIN AP   MOSUNNY   88  77  70 E12       29.80R HX 100
MAJURO AP      PTSUNNY   82  79  89 SE9       29.77F HX  93
MAJURO WSO     LGT RAIN  82  79  89 SE9       29.78F HX  93

$$




USA.gov is the U.S. government's official web portal to all federal, state and local government web resources and services.